When you browse on this site, cookies collect data to enhance your experience and personalize the content and advertising you see.
Visit our Privacy Policy to learn more. By continuing to use the site, you agree to this use of cookies and data.
  • In Latvia
  • List of Countries
  • For 7 days
  • Water Temperature
  • Weather Map
  • Weather Widgets
  • user-avatar
    Login

    Hourly Weather Baboshkin

    Today, 18 October, Friday

    Time Temperature Precipitation Wind Pressure Humidity
    00:00 +7°C° 0 mm 3 mps 767 mmHg 47%
    01:00 +7°C° 0 mm 3 mps 767 mmHg 49%
    02:00 +7°C° 0 mm 3 mps 767 mmHg 50%
    03:00 +7°C° 0 mm 3 mps 766 mmHg 53%
    04:00 +5°C° 0 mm 3 mps 766 mmHg 54%
    05:00 +5°C° 0 mm 3 mps 766 mmHg 55%
    06:00 +6°C° 0 mm 2 mps 765 mmHg 56%
    07:00 +7°C° 0 mm 3 mps 765 mmHg 51%
    08:00 +9°C° 0 mm 3 mps 765 mmHg 47%
    09:00 +10°C° 0 mm 4 mps 765 mmHg 42%
    10:00 +12°C° 0 mm 4 mps 764 mmHg 38%
    11:00 +13°C° 0 mm 4 mps 764 mmHg 34%
    12:00 +15°C° 0 mm 4 mps 763 mmHg 30%
    13:00 +15°C° 0 mm 4 mps 763 mmHg 32%
    14:00 +15°C° 0 mm 4 mps 762 mmHg 33%
    15:00 +17°C° 0 mm 3 mps 762 mmHg 33%
    16:00 +16°C° 0 mm 3 mps 762 mmHg 38%
    17:00 +13°C° 0 mm 3 mps 761 mmHg 43%
    18:00 +12°C° 0 mm 3 mps 761 mmHg 48%
    19:00 +12°C° 0 mm 3 mps 761 mmHg 52%
    20:00 +12°C° 0 mm 3 mps 761 mmHg 57%
    21:00 +11°C° 0 mm 3 mps 761 mmHg 61%
    22:00 +11°C° 0 mm 3 mps 761 mmHg 65%
    23:00 +11°C° 0 mm 3 mps 761 mmHg 68%

    Tomorrow, 19 October, Saturday

    Time Temperature Precipitation Wind Pressure Humidity
    00:00 +10°C° 0 mm 3 mps 761 mmHg 71%
    01:00 +10°C° 0 mm 2 mps 761 mmHg 74%
    02:00 +10°C° 0 mm 2 mps 761 mmHg 77%
    03:00 +10°C° 0 mm 2 mps 761 mmHg 80%
    04:00 +9°C° 0 mm 2 mps 761 mmHg 82%
    05:00 +9°C° 0 mm 2 mps 761 mmHg 84%
    06:00 +9°C° 0 mm 2 mps 761 mmHg 86%
    07:00 +10°C° 0 mm 2 mps 762 mmHg 81%
    08:00 +13°C° 0 mm 2 mps 762 mmHg 76%
    09:00 +14°C° 0 mm 2 mps 762 mmHg 71%
    10:00 +15°C° 0 mm 2 mps 762 mmHg 67%
    11:00 +17°C° 0 mm 2 mps 762 mmHg 64%
    12:00 +18°C° 0 mm 3 mps 762 mmHg 60%
    13:00 +18°C° 0 mm 3 mps 763 mmHg 58%
    14:00 +18°C° 0 mm 3 mps 763 mmHg 55%
    15:00 +18°C° 0 mm 3 mps 763 mmHg 53%
    16:00 +17°C° 0 mm 3 mps 763 mmHg 55%
    17:00 +16°C° 0 mm 3 mps 763 mmHg 57%
    18:00 +13°C° 0 mm 3 mps 764 mmHg 59%
    19:00 +13°C° 0 mm 3 mps 764 mmHg 65%
    20:00 +12°C° 0 mm 3 mps 764 mmHg 71%
    21:00 +11°C° 0 mm 3 mps 765 mmHg 78%
    22:00 +10°C° 0 mm 3 mps 765 mmHg 82%
    23:00 +10°C° 0 mm 3 mps 765 mmHg 86%

    Day after tomorrow, 20 October, Sunday

    Time Temperature Precipitation Wind Pressure Humidity
    00:00 +9°C° 0 mm 3 mps 765 mmHg 89%
    01:00 +9°C° 0 mm 3 mps 766 mmHg 90%
    02:00 +8°C° 0 mm 3 mps 766 mmHg 91%
    03:00 +8°C° 0 mm 3 mps 766 mmHg 91%
    04:00 +8°C° 0 mm 3 mps 767 mmHg 91%
    05:00 +8°C° 0 mm 3 mps 767 mmHg 91%
    06:00 +7°C° 0 mm 3 mps 767 mmHg 91%
    07:00 +8°C° 0 mm 3 mps 767 mmHg 86%
    08:00 +9°C° 0 mm 3 mps 768 mmHg 80%
    09:00 +10°C° 0 mm 3 mps 768 mmHg 75%
    10:00 +12°C° 0 mm 3 mps 768 mmHg 69%
    11:00 +13°C° 0 mm 3 mps 768 mmHg 64%
    12:00 +15°C° 0 mm 2 mps 768 mmHg 59%
    13:00 +15°C° 0 mm 2 mps 768 mmHg 58%
    14:00 +16°C° 0 mm 2 mps 768 mmHg 57%
    15:00 +16°C° 0 mm 2 mps 768 mmHg 56%
    16:00 +15°C° 0 mm 2 mps 768 mmHg 60%
    17:00 +14°C° 0 mm 2 mps 768 mmHg 65%
    18:00 +13°C° 0 mm 2 mps 769 mmHg 69%
    19:00 +13°C° 0 mm 2 mps 769 mmHg 70%
    20:00 +13°C° 0 mm 2 mps 769 mmHg 71%
    21:00 +13°C° 0 mm 2 mps 769 mmHg 72%
    22:00 +12°C° 0 mm 2 mps 769 mmHg 71%
    23:00 +12°C° 0 mm 2 mps 769 mmHg 70%

    21 October, Monday

    Time Temperature Precipitation Wind Pressure Humidity
    00:00 +12°C° 0 mm 2 mps 769 mmHg 70%
    01:00 +10°C° 0 mm 2 mps 769 mmHg 71%
    02:00 +10°C° 0 mm 2 mps 769 mmHg 72%
    03:00 +9°C° 0 mm 2 mps 769 mmHg 73%
    04:00 +9°C° 0 mm 2 mps 770 mmHg 73%
    05:00 +8°C° 0 mm 2 mps 770 mmHg 74%
    06:00 +8°C° 0 mm 2 mps 770 mmHg 75%
    07:00 +9°C° 0 mm 2 mps 770 mmHg 70%
    08:00 +10°C° 0 mm 2 mps 770 mmHg 65%
    09:00 +12°C° 0 mm 2 mps 770 mmHg 60%
    10:00 +13°C° 0 mm 2 mps 770 mmHg 57%
    11:00 +14°C° 0 mm 2 mps 770 mmHg 54%
    12:00 +15°C° 0 mm 2 mps 770 mmHg 51%
    13:00 +15°C° 0 mm 2 mps 769 mmHg 50%
    14:00 +15°C° 0 mm 2 mps 769 mmHg 49%
    15:00 +15°C° 0 mm 2 mps 769 mmHg 49%
    16:00 +14°C° 0 mm 2 mps 769 mmHg 52%
    17:00 +13°C° 0 mm 2 mps 769 mmHg 55%
    18:00 +12°C° 0 mm 2 mps 769 mmHg 58%
    19:00 +12°C° 0 mm 2 mps 769 mmHg 58%
    20:00 +12°C° 0 mm 2 mps 769 mmHg 59%
    21:00 +10°C° 0 mm 2 mps 769 mmHg 59%
    22:00 +10°C° 0 mm 2 mps 768 mmHg 60%
    23:00 +9°C° 0 mm 3 mps 768 mmHg 61%

    22 October, Tuesday

    Time Temperature Precipitation Wind Pressure Humidity
    00:00 +9°C° 0 mm 3 mps 768 mmHg 61%
    01:00 +9°C° 0 mm 3 mps 768 mmHg 63%
    02:00 +8°C° 0 mm 3 mps 768 mmHg 64%
    03:00 +8°C° 0 mm 3 mps 767 mmHg 65%
    04:00 +8°C° 0 mm 3 mps 767 mmHg 66%
    05:00 +8°C° 0 mm 3 mps 767 mmHg 67%
    06:00 +8°C° 0 mm 3 mps 767 mmHg 68%
    07:00 +9°C° 0 mm 3 mps 767 mmHg 64%
    08:00 +10°C° 0 mm 3 mps 767 mmHg 61%
    09:00 +11°C° 0 mm 4 mps 767 mmHg 57%
    10:00 +13°C° 0 mm 4 mps 766 mmHg 54%
    11:00 +14°C° 0 mm 5 mps 766 mmHg 51%
    12:00 +15°C° 0 mm 5 mps 766 mmHg 48%
    13:00 +16°C° 0 mm 5 mps 765 mmHg 47%
    14:00 +16°C° 0 mm 5 mps 765 mmHg 47%
    15:00 +16°C° 0 mm 5 mps 765 mmHg 47%
    16:00 +15°C° 0 mm 5 mps 765 mmHg 50%
    17:00 +14°C° 0 mm 5 mps 764 mmHg 54%
    18:00 +13°C° 0 mm 4 mps 764 mmHg 58%
    19:00 +13°C° 0 mm 4 mps 764 mmHg 58%
    20:00 +13°C° 0 mm 5 mps 764 mmHg 58%
    21:00 +13°C° 0 mm 5 mps 764 mmHg 59%
    22:00 +13°C° 0 mm 5 mps 763 mmHg 59%
    23:00 +13°C° 0 mm 5 mps 763 mmHg 60%

    23 October, Wednesday

    Time Temperature Precipitation Wind Pressure Humidity
    00:00 +13°C° 0 mm 5 mps 763 mmHg 60%
    01:00 +13°C° 0 mm 5 mps 763 mmHg 61%
    02:00 +12°C° 0 mm 5 mps 763 mmHg 62%
    03:00 +12°C° 0 mm 5 mps 762 mmHg 63%
    04:00 +12°C° 0 mm 5 mps 762 mmHg 64%
    05:00 +12°C° 0 mm 5 mps 762 mmHg 66%
    06:00 +12°C° 0 mm 5 mps 762 mmHg 67%
    07:00 +12°C° 0 mm 4 mps 762 mmHg 66%
    08:00 +13°C° 0 mm 4 mps 762 mmHg 65%
    09:00 +13°C° 0 mm 4 mps 762 mmHg 64%
    10:00 +14°C° 0 mm 4 mps 762 mmHg 64%
    11:00 +14°C° 0 mm 4 mps 762 mmHg 64%
    12:00 +16°C° 0 mm 3 mps 762 mmHg 64%
    13:00 +16°C° 0 mm 3 mps 762 mmHg 63%
    14:00 +17°C° 0 mm 3 mps 763 mmHg 62%
    15:00 +18°C° 0 mm 3 mps 763 mmHg 60%
    16:00 +17°C° 0 mm 3 mps 763 mmHg 65%
    17:00 +16°C° 0 mm 2 mps 763 mmHg 70%
    18:00 +15°C° 0 mm 2 mps 763 mmHg 74%
    19:00 +14°C° 0 mm 2 mps 763 mmHg 76%
    20:00 +14°C° 0 mm 1 mps 764 mmHg 78%
    21:00 +13°C° 0 mm 1 mps 764 mmHg 80%
    22:00 +13°C° 0 mm 1 mps 764 mmHg 81%
    23:00 +13°C° 0 mm 1 mps 764 mmHg 81%
    Show more